FW2611 Weather Reports


time (UTC)temp
C
wind
direction
speed
KPH
gust
KPH
rain 1hr
cm
rain 24hr
cm
rain mn
cm
humidity
%
barometer
mb
20260504174512 16 179 16.1 30.6 0.00 0.00 0.00 68 1014.0
20260504173020 16 200 16.1 30.6 0.00 0.00 0.00 68 1014.2
20260504171504 16 193 14.5 25.7 0.00 0.00 0.00 68 1014.5
20260504081518 10 200 6.4 16.1 0.00 0.00 0.00 70 1016.5
20260504050016 11 246 6.4 19.3 0.00 0.00 0.00 53 1016.0
20260504044519 11 219 8.0 20.9 0.00 0.00 0.00 53 1015.9
20260504043024 11 224 9.7 20.9 0.00 0.00 0.00 52 1015.8
20260504041527 11 234 14.5 22.5 0.00 0.00 0.00 51 1015.9
20260504040031 11 228 9.7 19.3 0.00 0.00 0.00 51 1015.6
20260504034531 11 241 9.7 19.3 0.00 0.00 0.00 52 1015.5
20260504033027 11 214 9.7 19.3 0.00 0.00 0.00 53 1015.5
20260504031524 11 214 6.4 19.3 0.00 0.00 0.00 53 1015.5
20260504030037 11 228 11.3 22.5 0.00 0.00 0.00 53 1015.5
20260504024526 11 240 6.4 17.7 0.00 0.00 0.00 55 1015.4
20260504023019 11 216 6.4 16.1 0.00 0.00 0.00 56 1015.3
20260504021524 11 231 8.0 16.1 0.00 0.00 0.00 53 1015.3
20260504020025 11 232 6.4 16.1 0.00 0.00 0.00 47 1015.3
20260504014528 12 246 6.4 16.1 0.00 0.00 0.00 46 1015.2
20260504013028 12 232 6.4 16.1 0.00 0.00 0.00 43 1015.1
20260504011522 12 232 4.8 12.9 0.00 0.00 0.00 42 1015.1
20260504010004 12 220 3.2 8.0 0.00 0.00 0.00 40 1014.9
20260504004508 12 238 4.8 14.5 0.00 0.00 0.00 38 1014.5
20260504003012 13 240 3.2 11.3 0.00 0.00 0.00 38 1014.4
20260504001516 13 242 3.2 11.3 0.00 0.00 0.00 37 1014.4
20260504000020 13 239 4.8 12.9 0.00 0.00 0.00 35 1014.4
20260503234508 14 257 6.4 20.9 0.00 0.00 0.00 35 1014.4
20260503233008 15 289 11.3 27.4 0.00 0.00 0.00 34 1014.0
20260503231517 15 273 9.7 20.9 0.00 0.00 0.00 34 1014.0
20260503230018 16 279 9.7 27.4 0.00 0.00 0.00 32 1014.0
20260503224519 16 275 8.0 29.0 0.00 0.00 0.00 32 1013.9
20260503223027 16 263 12.9 29.0 0.00 0.00 0.00 31 1013.7
20260503221508 16 321 12.9 25.7 0.00 0.00 0.00 32 1013.8
20260503220017 16 321 8.0 25.7 0.00 0.00 0.00 29 1013.8
20260503214515 16 302 14.5 33.8 0.00 0.00 0.00 31 1013.6
20260503213027 16 298 16.1 32.2 0.00 0.00 0.00 31 1013.4
20260503211529 16 262 14.5 33.8 0.00 0.00 0.00 32 1013.3
20260503210017 15 300 24.1 38.6 0.00 0.00 0.00 31 1013.4
20260503204514 15 290 19.3 40.2 0.00 0.00 0.00 31 1013.5
20260503203024 15 280 14.5 30.6 0.00 0.00 0.00 31 1013.4
20260503201526 15 315 16.1 32.2 0.00 0.00 0.00 31 1013.5
20260503200027 15 265 9.7 33.8 0.00 0.00 0.00 31 1013.7
20260503194519 15 285 22.5 41.8 0.00 0.00 0.00 32 1013.4
20260503193015 15 293 16.1 37.0 0.00 0.00 0.00 33 1013.6
20260503191521 15 298 16.1 37.0 0.00 0.00 0.00 33 1013.7
20260503190025 14 300 19.3 33.8 0.00 0.00 0.00 33 1013.8
20260503184528 14 284 22.5 37.0 0.00 0.00 0.00 34 1013.9
20260503183015 14 257 12.9 33.8 0.00 0.00 0.00 33 1014.0
20260503181519 14 343 12.9 32.2 0.00 0.00 0.00 34 1014.0
20260503180009 14 280 14.5 37.0 0.00 0.00 0.00 34 1014.0